Погода в Майкопе

Россия / Республика Адыгея     44°36′31″N   40°05′54″E
темп.,
°C
ветер,
м/с
пор.,
м/с
влажн.,
%
обл.,
%
осадки,
мм/ч
давл.,
гПа
погр.,
м
27 февраля, сб
сб2700:00+3юз389095 0.1 1025205
03:00+1юз269075 0.1 1024133
06:00+1ююз358813 0.0 1022110
09:00+5юз38827 0.0 1021267
12:00+10зюз49750 0.0 1020568
15:00+10зюз511710 0.0 1018829
18:00+5зюз25890 0.0 101788
21:00+3юз22894 0.0 101745
28 февраля, вс
вс2800:00+3юз238788 0.0 101752
03:00+2всв119294 0.1 101637
06:00+2зюз1492100 0.5 1016132
09:00+2сз3797100 2.3 1016443
12:00+1з1199100 4.1 101751
15:00+1юз1299100 7.8 1017107
18:00+1ююз1199100 0.9 101881
21:00+1сз3799100 2.5 1020453
1 марта, пн
пн100:00−1юз2495100 0.4 1021133
03:00−3ююз239369 0.4 102253
06:00−3ююз129217 0.0 102451
09:000ююз128428 0.0 1025195
12:00+4зсз35710 0.0 10251087
15:00+4сз357532 0.3 1025976
18:00+1ссз139899 0.4 1025121
21:00+1с129899 0.6 1027140
2 марта, вт
вт200:00+1ююз1195100 0.1 102849
03:000ююз129598 0.1 102889
06:00−2ю128845 0.0 102848
09:00+1ю127547 0.1 1028176
12:00+5зсз367720 0.0 1027867
15:00+6з6106547 0.1 10251489
18:00+3з6128421 0.0 1025752
21:00+2з6128659 0.0 1025768
3 марта, ср
ср300:00+2зюз71483100 0.0 10231019
03:00+2зюз8157499 0.0 1022978
06:00+2зюз7157870 0.2 10221099
09:00+1зсз4109785 5.2 1023600
12:00+5з587382 0.8 10231065
15:00+4зсз597968 1.7 10221054
18:00+2зюз498673 1.0 1023467
21:000з399146 1.1 1026398